Flag for Ireland Weather past 2 weeks in Dublin, Ireland

Now
43 °F

Broken clouds.


Feels Like: 35 °F
Forecast: 40 / 47 °F
Wind: 15 mph from Southwest

Location: Dublin Airport

Current Time: Mar 30, 2015 at 11:55:58 AM

Latest Report: Mar 30, 2015 at 11:00 AM


Visibility: N/A

Pressure: 29.77 "Hg

Humidity: 71%

Dew point: 34 °F

Location of DublinLocation

Historic Weather in Dublin — Graph

°F

Dublin temperature yesterday

Maximum temperature yesterday: 48 °F (at 1:30 PM)
Minimum temperature yesterday: 39 °F (at 10:30 PM)
Average temperature yesterday: 44 °F

Past Weeks' High & Low Weather Summary

 TemperatureHumidityPressure
High57 °F (Mar 28, 11:00 AM)100% (Mar 17, 2:00 AM)30.60 "Hg (Mar 17, 2:00 AM)
Low25 °F (Mar 18, 5:30 AM)50% (Mar 23, 2:30 PM)29.27 "Hg (Mar 29, 9:00 AM)
Average42 °F82%30.08 "Hg
* Reported Mar 15 10:00 AM — Mar 30 11:00 AM, Dublin, Weather by CustomWeather, © 2015

Note: Actual official high and low records may vary slightly from our data, if they occured in-between our weather recording intervals... More about our weather records

Advertising

Dublin weather history for previous 24 hours

 ConditionsComfort  
Time TempWeatherWind HumidityBarometerVisibility
11:00 AM
Mon, Mar 30
43 °FBroken clouds.15 mph71%29.77 "HgN/A
10:30 AM43 °FBroken clouds.15 mph71%29.77 "HgN/A
10:00 AM43 °FBroken clouds.15 mph71%29.77 "HgN/A
9:30 AM41 °FSunny.15 mph76%29.77 "Hg10 mi
9:00 AM39 °FOvercast.10 mph75%29.77 "HgN/A
8:30 AM39 °FPartly sunny.12 mph75%29.80 "HgN/A
8:00 AM39 °FPassing clouds.13 mph75%29.77 "HgN/A
7:30 AM37 °FPartly cloudy.12 mph81%29.77 "HgN/A
7:00 AM37 °FPassing clouds.12 mph81%29.77 "HgN/A
6:30 AM37 °FPassing clouds.20 mph81%29.77 "HgN/A
6:00 AM37 °FPassing clouds.16 mph81%29.74 "HgN/A
5:30 AM37 °FPartly cloudy.15 mph81%29.71 "HgN/A
5:00 AM37 °FPartly cloudy.17 mph87%29.71 "HgN/A
4:30 AM37 °FPartly cloudy.16 mph87%29.71 "HgN/A
4:00 AM37 °FPartly cloudy.15 mph87%29.68 "HgN/A
3:30 AM39 °FPartly cloudy.16 mph81%29.68 "HgN/A
3:00 AM39 °FPartly cloudy.17 mph81%29.68 "HgN/A
2:30 AM39 °FPassing clouds.17 mph81%29.65 "HgN/A
2:00 AM39 °FPassing clouds.18 mph81%29.65 "HgN/A
1:30 AM39 °FPassing clouds.18 mph81%29.62 "HgN/A
1:00 AM37 °FPassing clouds.17 mph87%29.62 "HgN/A
12:30 AM39 °FSprinkles. Partly cloudy.18 mph87%29.59 "HgN/A
12:00 AM39 °FPassing clouds.20 mph81%29.59 "HgN/A
11:30 PM
Sun, Mar 29
39 °FPassing clouds.18 mph87%29.56 "HgN/A
11:00 PM39 °FPassing clouds.17 mph87%29.56 "HgN/A
10:30 PM39 °FPassing clouds.20 mph87%29.56 "HgN/A
10:00 PM41 °FPassing clouds.18 mph81%29.53 "HgN/A
9:30 PM41 °FPassing clouds.16 mph81%29.53 "HgN/A
9:00 PM41 °FPassing clouds.21 mph81%29.53 "HgN/A
8:30 PM41 °FBroken clouds.17 mph87%29.50 "HgN/A
8:00 PM41 °FBroken clouds.13 mph87%29.50 "HgN/A
7:30 PM41 °FSprinkles. Partly sunny.23 mph87%29.50 "HgN/A
7:00 PM43 °FSprinkles. Partly sunny.13 mph81%29.47 "HgN/A
6:30 PM43 °FPartly sunny.18 mph81%29.45 "HgN/A
6:00 PM43 °FSprinkles. Partly sunny.18 mph81%29.45 "HgN/A
5:30 PM46 °FBroken clouds.28 mph71%29.45 "HgN/A
5:00 PM46 °FPartly sunny.28 mph71%29.42 "HgN/A
4:30 PM48 °FPartly sunny.26 mph71%29.42 "HgN/A
4:00 PM45 °FPartly sunny.28 mph87%29.42 "HgN/A
3:30 PM46 °FBroken clouds.24 mph82%29.39 "HgN/A
3:00 PM48 °FBroken clouds.29 mph82%29.39 "HgN/A
2:30 PM46 °FSprinkles. Partly sunny.26 mph82%29.39 "HgN/A
2:00 PM46 °FSprinkles. Partly sunny.29 mph82%29.36 "HgN/A
1:30 PM48 °FBroken clouds.29 mph76%29.36 "HgN/A
1:00 PM46 °FBroken clouds.30 mph87%29.36 "HgN/A
12:30 PM45 °FSprinkles. Broken clouds.28 mph93%29.36 "HgN/A
12:00 PM45 °FLight rain. Broken clouds.22 mph87%29.36 "HgN/A
11:30 AM43 °FLight rain. Broken clouds.16 mph93%29.33 "HgN/A
11:00 AM43 °FBroken clouds.12 mph93%29.30 "HgN/A
Weather by CustomWeather, © 2015

See weather overviewHow to use our weather pages